Lexington Weather

Lexington, Massachusetts, USA

44°F
5/12/2021 4:22am 
  • Lexington Conditions: Clear
  • Temperature: 44.4°F / 6.9°CColder 0.7°F than last hour.
  • Dew Point: 32.5°FIncreased 0.9°Fsince last hour.
  • Relative Humidity: 63%Increased 4.0% since last hour.
  • Wind: Wind from WNW WNW 2 mph, 10-min avg: 1 mph, gust: 2 mph
  • Barometer: 29.92 in Steady
  • Visibility: 10 miles
  • Rain Today: 0.00 in
  •   

Regional Weather Roundup
for Boston / Norton, MA

        
000
ASUS41 KBOX 101004
RWRBOX

REGIONAL WEATHER ROUNDUP
NATIONAL WEATHER SERVICE BOSTON/NORTON MA
600 AM EDT MON MAY 10 2021

NOTE:  "FAIR" INDICATES FEW OR NO CLOUDS BELOW 12,000 FEET WITH NO 
SIGNIFICANT WEATHER AND/OR OBSTRUCTIONS TO VISIBILITY.

MAZALL-101100-
EASTERN MASSACHUSETTS
  
CITY           SKY/WX    TMP DP  RH WIND       PRES   REMARKS
BOSTON         RAIN      50  46  86 N7        29.81R                  
BEVERLY        RAIN      48  46  93 N6        29.81R FOG              
LAWRENCE       LGT RAIN  49  46  90 N6        29.84R                  
BEDFORD        RAIN      48  46  93 N5        29.79F FOG              
BLUE HILL        N/A     45  45 100 N7        29.77S                  
NORWOOD        RAIN      49  46  90 N6        29.79S FOG              
MARSHFIELD     LGT RAIN  50  50 100 CALM      29.79R                  
PLYMOUTH       LGT RAIN  47  45  93 N6        29.77R                  
TAUNTON        LGT RAIN  48  46  93 N3        29.79R FOG              
NEW BEDFORD    LGT RAIN  47  46  97 N3        29.77R                  
$$

MAZALL-101100-
CAPE COD AND THE ISLANDS
  
CITY           SKY/WX    TMP DP  RH WIND       PRES   REMARKS
FALMOUTH       LGT RAIN  46  46 100 NE8       29.76R                  
HYANNIS        RAIN      47  45  93 N6        29.75R FOG              
CHATHAM        RAIN      46  44  93 E7        29.77S FOG              
PROVINCETOWN   LGT RAIN  47  47 100 E5        29.80R FOG              
NANTUCKET      LGT RAIN  45  44  97 NE17      29.73F FOG              
MARTHAS VNYRD  LGT RAIN  47  46  97 E8        29.74R                  
$$
 
MAZALL-101100-
CENTRAL AND WESTERN MASSACHUSETTS
  
CITY           SKY/WX    TMP DP  RH WIND       PRES   REMARKS
WORCESTER      CLOUDY    45  43  93 NE6       29.76F FOG              
FITCHBURG      LGT RAIN  47  46  97 VRB5      29.79F                  
ORANGE         CLOUDY    47  45  93 N3        29.79S                  
SPRINGFIELD    CLOUDY    46  46 100 N3        29.78R                  
WESTFIELD      CLOUDY    47  46  97 N5        29.79R                  
NORTH ADAMS    CLOUDY    46  45  96 CALM      29.81R                  
PITTSFIELD     CLOUDY    44  41  89 W3        29.79R                  
$$
 
RIZALL-101100-
RHODE ISLAND
  
CITY           SKY/WX    TMP DP  RH WIND       PRES   REMARKS
PROVIDENCE     LGT RAIN  48  46  93 NE7       29.78S FOG              
NEWPORT        LGT RAIN  46  45  96 N9        29.76R                  
BLOCK ISLAND   CLOUDY    45  44  97 NE12      29.75R                  
SMITHFIELD     FOG       46  46 100 NE6       29.77S VSB 1/4          
WESTERLY       LGT RAIN  44  43  96 N6        29.75R FOG              
$$
 
CTZALL-101100-
CONNECTICUT
  
CITY           SKY/WX    TMP DP  RH WIND       PRES   REMARKS
BRADLEY INTL   CLOUDY    47  44  90 NW5       29.79R                  
HARTFORD       CLOUDY    48  45  89 N7        29.78S                  
BRIDGEPORT     CLOUDY    48  45  89 NE7       29.77R                  
DANBURY        CLOUDY    48  43  82 N6        29.79R                  
GROTON         LGT RAIN  47  45  93 NE8       29.74F FOG              
NEW HAVEN      CLOUDY    48  47  96 N8        29.76R                  
CHESTER        CLOUDY    46  46 100 N6        29.75F FOG              
MERIDEN        NOT AVBL                                               
WILLIMANTIC    CLOUDY    46  45  96 N6        29.77S                  
OXFORD         CLOUDY    44  44 100 N9        29.77S                  
$$

MEZ002-015-021-024-NHZ003-005-008-011-012-014-VTZ005-008-101100-
NORTHERN NEW ENGLAND
  
CITY           SKY/WX    TMP DP  RH WIND       PRES   REMARKS
PORTLAND ME    LGT RAIN  47  44  90 W6        29.82R                  
BANGOR ME      CLOUDY    45  38  76 SW3       29.79R                  
CONCORD NH     LGT RAIN  47  44  90 N3        29.82R                  
MANCHESTER NH  LGT RAIN  49  45  86 CALM      29.80S                  
NASHUA NH      LGT RAIN  48  48 100 NE3       29.80F                  
PORTSMOUTH NH  LGT RAIN  48  47  94 W5        29.83R                  
JAFFREY NH     LGT RAIN  45  44  97 VRB3      29.78F                  
KEENE NH       LGT RAIN  46  45  96 NW5       29.81F                  
BURLINGTON VT  CLOUDY    48  44  86 SE3       29.82S                  
MT. WASHINGTON FLURRIES  25  24  96 NE14        N/A  WCI  13          
$$

NYZ052-076-101100-
EASTERN NEW YORK
  
CITY           SKY/WX    TMP DP  RH WIND       PRES   REMARKS
ALBANY         CLOUDY    43  43 100 W3        29.83R                  
NEW YORK CITY  CLOUDY    48  44  86 N10       29.78R FOG              
$$
 
ANZALL-101100-
MARINE OBSERVATIONS
  
STATION/POSITION TIME  TEMP    WIND        PRES    VSBY  WAVE
                       AIR SEA DIR/SP/G                  HT/PER
                 (UTC) (F)     (DEG/KT/KT) (MB)    (MI)  (FT/S)
BOSTON BUOY      0940   47 48  360/  6/  6 1009.3R
BUZZARDS BAY     0900           90/ 15/ 17 1007.7F
NANTUCKET SOUND  0940      52                N/A
MASS BAY-STELLWA 0904   48     210/  2/  4 1008.3F  1 7/8  2/11
ISLE OF SHOALS   0900   48     210/ 11/ 11 1009.0R
S OF BLOCK IS    0926      49                N/A           4/ 4
$$

......................KEY.........................
  SKY/WX - SKY CONDITION/PRESENT WEATHER
  TMP    - TEMPERATURE IN FAHRENHEIT
  DWPT   - DEWPOINT IN FAHRENHEIT
  RH     - RELATIVE HUMIDITY IN PERCENT
  WIND   - DIRECTION AND SPEED IN MPH
  PRES   - MEAN SEA LEVEL PRESSURE IN INCHES OF HG
  WCI    - WIND CHILL INDEX
  VSB    - VISIBILITY IN MILES
  HX     - HEAT INDEX
  TC     - TEMPERATURE IN CELSIUS
  VRB    - VARIABLE WIND DIRECTION
  N/A    - NOT AVAILABLE
  
      

Other recent Regional Weather Roundups

Wed May 12, 3:04am

Wed May 12, 2:04am

Wed May 12, 1:04am

Wed May 12, 12:05am

Tue May 11, 11:05pm

Tue May 11, 10:04pm

Tue May 11, 9:05pm

Tue May 11, 8:05pm

Tue May 11, 7:04pm

Tue May 11, 6:04pm

Tue May 11, 5:04pm

Tue May 11, 4:05pm

Tue May 11, 3:04pm

Tue May 11, 2:05pm

Tue May 11, 1:04pm

Tue May 11, 12:05pm

Tue May 11, 11:05am

Tue May 11, 10:04am

Tue May 11, 9:04am

Tue May 11, 8:04am

Tue May 11, 7:05am

Tue May 11, 6:04am

Tue May 11, 5:04am

Tue May 11, 4:04am

Tue May 11, 3:04am

Tue May 11, 2:04am

Tue May 11, 1:04am

Tue May 11, 12:04am

Mon May 10, 11:04pm

Mon May 10, 10:04pm

Mon May 10, 9:05pm

Mon May 10, 8:04pm

Mon May 10, 7:05pm

Mon May 10, 6:04pm

Mon May 10, 5:04pm

Mon May 10, 4:04pm

Mon May 10, 3:04pm

Mon May 10, 2:04pm

Mon May 10, 1:04pm

Mon May 10, 12:04pm

Mon May 10, 11:05am

Mon May 10, 10:04am

Mon May 10, 9:04am

Mon May 10, 8:04am

Mon May 10, 7:04am

Mon May 10, 5:05am

Mon May 10, 4:04am

Mon May 10, 3:04am

Mon May 10, 2:04am

Mon May 10, 1:04am

Mon May 10, 12:04am

Sun May 9, 11:04pm

Sun May 9, 10:04pm

Sun May 9, 9:04pm

Sun May 9, 8:04pm

Sun May 9, 7:05pm

Sun May 9, 6:04pm

Sun May 9, 5:04pm

Sun May 9, 4:04pm

Sun May 9, 3:04pm

Sun May 9, 2:04pm

Sun May 9, 1:05pm

Sun May 9, 12:04pm

Sun May 9, 11:05am

Sun May 9, 10:04am

Sun May 9, 9:04am

Sun May 9, 8:04am

Sun May 9, 7:04am

Sun May 9, 6:04am

Sun May 9, 5:04am

Sun May 9, 4:04am

Sun May 9, 3:04am

Sun May 9, 2:04am

Sun May 9, 1:05am

Sun May 9, 12:04am

Sat May 8, 11:05pm

Sat May 8, 10:04pm

Sat May 8, 9:05pm

Sat May 8, 8:04pm

Sat May 8, 7:04pm

Sat May 8, 6:04pm

Sat May 8, 5:05pm

Sat May 8, 4:04pm

Sat May 8, 3:05pm

Sat May 8, 2:05pm

Sat May 8, 1:05pm

Sat May 8, 12:04pm

Sat May 8, 11:05am

Sat May 8, 10:04am

Sat May 8, 9:04am

Sat May 8, 8:04am

Sat May 8, 7:04am

Sat May 8, 6:04am

Sat May 8, 5:04am

Sat May 8, 4:04am

Sat May 8, 3:04am

Sat May 8, 2:04am

Sat May 8, 1:05am

Sat May 8, 12:04am

Fri May 7, 11:04pm

Fri May 7, 10:05pm

Fri May 7, 9:04pm

Fri May 7, 8:04pm

Fri May 7, 7:05pm

Fri May 7, 6:04pm

Fri May 7, 5:05pm

Fri May 7, 4:04pm

Fri May 7, 3:04pm

Fri May 7, 2:05pm

Fri May 7, 1:04pm

Fri May 7, 12:04pm

Fri May 7, 11:05am

Fri May 7, 10:04am

Fri May 7, 9:04am

Fri May 7, 8:05am

Fri May 7, 7:04am

Fri May 7, 6:04am

Fri May 7, 5:04am

Fri May 7, 4:04am

Fri May 7, 3:04am

Fri May 7, 2:05am

Fri May 7, 1:04am

Fri May 7, 12:05am

Thu May 6, 11:04pm

Thu May 6, 10:04pm

Thu May 6, 9:05pm

Thu May 6, 8:04pm

Thu May 6, 7:04pm

Thu May 6, 6:04pm

Thu May 6, 5:05pm

Thu May 6, 4:04pm

Thu May 6, 3:04pm

Thu May 6, 2:05pm

Thu May 6, 1:04pm

Thu May 6, 12:04pm

Thu May 6, 11:04am

Thu May 6, 10:04am

Thu May 6, 9:04am

Thu May 6, 8:04am

Thu May 6, 7:04am

Thu May 6, 6:04am

Thu May 6, 5:04am

Thu May 6, 4:04am

Thu May 6, 3:04am

Thu May 6, 2:05am

Thu May 6, 1:04am

Thu May 6, 12:05am

Wed May 5, 11:04pm

Wed May 5, 10:04pm

Wed May 5, 9:05pm

Wed May 5, 8:04pm

Wed May 5, 7:05pm

Wed May 5, 6:04pm

Wed May 5, 5:04pm

Wed May 5, 4:04pm

Wed May 5, 3:04pm

Wed May 5, 2:05pm

Wed May 5, 1:05pm

Wed May 5, 12:04pm

Wed May 5, 11:05am

Wed May 5, 10:04am

Wed May 5, 9:04am

Wed May 5, 8:04am

Wed May 5, 7:04am

Wed May 5, 6:05am

Wed May 5, 5:04am

Wed May 5, 4:04am

Meta data:

ID: 680e7146-26e9-4c02-8cf8-c3c53502b650
Link: https://api.weather.gov/products/680e7146-26e9-4c02-8cf8-c3c53502b650